Starlink 5739

operational
NORAD ID: 55571 Int'l Des: 2023-020 Owner: SPXS Country: US Constellation: starlink
LEOCIRCULAR

About Starlink 5739

Description loading...

Live Position

Loading 3D Globe...

Upcoming Passes

Altitude History

Altitude vs Time

uPlot chart will show altitude changes over time

Two-Line Element Set

1 55571U 23020C 26012.50311483 .00001088 00000-0 95591-4 0 9996
2 55571 43.0051 310.2652 0000860 278.9617 81.1128 15.02535778160462
Epoch: Jan 12, 2026 • Age: 18 hours

Current Status

Altitude 559.6 km
Velocity 7.58 km/s
Sub-Earth Point -6.25°S, 103.11°E
Launch Date Feb 12, 2023
Age 2.9 years
Type internet

Technical Details

Classification Payload
Mass 305.00 kg
Dry Mass 290.00 kg
Total Mass 305.00 kg
Length 0.20 m
Diameter 2.80 m
Span 9.00 m
Shape Box + pan
Manufacturer SPXS
Bus Type Starlink
Phase Status In Orbit
Owner/State SPXS/US

Large Constellations

Loading constellations...